[[{"header":{"parameterUnit":"m.s-1","parameterCategory":1,"la1":30.2991,"la2":30.254,"lo1":-89.0895,"lo2":-89.0444,"dy":0.0017,"dx":0.0017,"nx":28,"ny":28,"refTime":"2023-08-13T03:00:00:Z","depth":0,"parameterNumber":2,"parameterNumberName":"U-component_of_WINDS"},"data":[0,0,0,0,0,0,0,0,0,0,0,0,0,0,0,0,0,0,0,0,0,0,0,0,0,0,0,0,0,0,0,0,0,0,0,0,0,0,0,0,0,0,0,0,0,0,0,0,0,0,0,0,0,0,0,0,0,0,1.3036,1.3036,0,1.3096,1.3096,1.3097,1.3089,1.3088,1.3087,1.3086,1.3147,1.3149,1.3152,0,0,0,0,0,0,0,0,0,0,0,0,0,1.2912,1.2914,1.3035,1.3036,1.3037,1.3096,1.3096,1.3097,1.3089,1.3088,1.3087,1.3085,1.3146,1.3149,1.3152,0,0,0,0,0,0,0,0,0,0,0,0,0,1.2968,1.2915,1.3035,1.304,1.3041,1.3095,1.3096,1.3097,1.3089,1.3088,1.3086,1.3085,1.3145,1.3149,1.3152,1.3206,0,0,1.3164,1.3166,0,0,0,0,0,0,0,0,1.2965,1.2973,1.3039,1.304,1.3041,1.3083,1.3075,1.3134,1.309,1.3071,1.3086,1.3084,1.3127,1.3132,1.3147,1.3209,1.3211,1.3164,1.3167,1.3168,1.3169,0,0,0,0,0,0,0,1.2961,1.297,1.3059,1.304,1.3041,1.3038,1.3045,1.3086,1.3106,1.3072,1.3072,1.3079,1.3127,1.3143,1.3148,1.3212,1.3164,1.3168,1.317,1.3171,1.332,1.3321,0,0,0,0,0,0,1.2956,1.2967,1.3057,1.3061,1.2999,1.3042,1.3049,1.3071,1.3106,1.311,1.308,1.3079,1.3137,1.3143,1.315,1.3214,1.3168,1.3172,1.3174,1.3318,1.332,1.3322,0,0,0,0,0,0,1.2953,1.2964,1.3055,1.3014,1.3025,1.3046,1.3071,1.3073,1.3089,1.3112,1.3115,1.3093,1.3136,1.3145,1.3192,1.3216,1.3174,1.3177,1.3316,1.3319,1.3321,1.3343,0,0,0,0,0,0,1.295,1.2963,1.2984,1.3014,1.3027,1.3096,1.3072,1.3075,1.3096,1.3094,1.3125,1.3128,1.3136,1.3186,1.3195,1.322,1.318,1.3314,1.3317,1.332,1.334,1.3346,1.335,0,0,0,0,0,1.2946,1.2988,1.2985,1.2996,1.3054,1.3098,1.3105,1.3113,1.3098,1.3118,1.3133,1.3127,1.3212,1.3191,1.3202,1.3228,1.3312,1.3316,1.332,1.3337,1.3344,1.335,0,0,0,0,0,0,1.296,1.2992,1.299,1.3043,1.3068,1.3096,1.3123,1.312,1.3149,1.3146,1.3154,1.3162,1.3209,1.3223,1.3199,1.3281,1.326,1.3266,1.327,1.3276,1.3282,1.3277,1.3183,0,0,0,0,0,1.2969,1.3003,1.3029,1.3073,1.3086,1.3102,1.3122,1.3125,1.3151,1.3161,1.318,1.3204,1.3236,1.3257,1.3288,1.3342,1.3348,1.3365,1.337,1.3375,1.338,1.3408,1.3416,1.3334,1.3334,1.3334,0,0,1.2989,1.3011,1.3031,1.3077,1.3096,1.313,1.3111,1.3148,1.3172,1.3167,1.3212,1.3226,1.3254,1.3305,1.3328,1.3318,1.3404,1.3379,1.3383,1.3385,1.3413,1.342,1.3427,1.3336,1.3336,1.3336,0,0,1.3042,1.3062,1.3101,1.3121,1.3151,1.3162,1.3171,1.32,1.3209,1.3255,1.3251,1.328,1.3336,1.3356,1.3373,1.3433,1.3428,1.3443,1.347,1.3498,1.3504,1.351,1.353,1.3538,1.3447,1.3447,1.3448,0,1.3063,1.3114,1.3122,1.3159,1.3178,1.3175,1.3214,1.3233,1.3271,1.3284,1.3273,1.3342,1.336,1.3415,1.3429,1.3444,1.3454,1.3439,1.3503,1.3508,1.3514,1.3533,1.3541,1.3449,1.3449,1.3449,1.3449,0,1.3137,1.3173,1.32,1.3237,1.326,1.3298,1.3311,1.3333,1.3335,1.3346,1.3392,1.3415,1.3449,1.3463,1.3465,1.3517,1.351,1.3501,1.348,1.3523,1.3541,1.3549,1.3451,1.3451,1.345,1.345,0,0,1.3201,1.3242,1.3252,1.3268,1.3301,1.3328,1.3365,1.3399,1.3417,1.3444,1.3474,1.3521,1.3512,1.3532,1.3536,1.356,1.3605,1.3548,1.3548,1.3557,1.3663,1.367,1.3678,1.3602,1.3604,1.3605,1.366,0,1.3257,1.3323,1.3331,1.3389,1.3421,1.3418,1.3451,1.3474,1.3485,1.3513,1.3526,1.3558,1.3545,1.3556,1.358,1.3594,1.3626,1.3591,1.363,1.3632,1.3623,1.3688,1.3695,1.3747,1.3668,1.3669,1.367,0,1.333,1.3359,1.3421,1.3448,1.3461,1.349,1.3522,1.3549,1.3575,1.3582,1.3603,1.3604,1.3642,1.362,1.3671,1.3646,1.3663,1.3672,1.3674,1.3678,1.3653,1.3693,1.3763,1.3771,1.3682,1.3681,1.368,0,1.3369,1.3423,1.3467,1.3481,1.3514,1.3535,1.3549,1.3573,1.3593,1.3621,1.3633,1.3665,1.3682,1.3706,1.3715,1.3698,1.3765,1.3744,1.3771,1.3771,1.3785,1.3784,1.3859,1.3797,1.3797,1.3797,1.3796,0,1.343,1.3468,1.3485,1.3512,1.3554,1.3562,1.3603,1.3617,1.3638,1.3667,1.3666,1.3693,1.3704,1.3732,1.374,1.378,1.3788,1.3794,1.3795,1.3794,1.3793,1.3804,1.3801,1.3799,1.3798,1.3798,1.3797,0,1.3481,1.3494,1.3541,1.3569,1.3576,1.3606,1.3629,1.3655,1.3666,1.3702,1.3711,1.3728,1.3762,1.3773,1.3814,1.3818,1.3866,1.3864,1.3857,1.3857,1.3883,1.388,1.3967,1.3979,1.391,1.3911,1.3911,0,1.3519,1.3547,1.3578,1.3597,1.3613,1.3644,1.3664,1.3674,1.3694,1.3725,1.3747,1.378,1.3807,1.386,1.3876,1.3907,1.3906,1.3934,1.391,1.3908,1.3905,1.3903,1.3906,1.3938,1.3939,1.394,1.394,0,1.3584,1.3588,1.3618,1.3649,1.3674,1.3699,1.3723,1.3739,1.3751,1.3775,1.3809,1.383,1.3871,1.3904,1.3935,1.3949,1.3947,1.3948,1.3955,1.3954,1.3948,1.3951,1.3868,1.3945,1.3945,1.3945,1.3944,1.3944,1.3628,1.3654,1.3679,1.3711,1.3731,1.3753,1.3778,1.3793,1.3821,1.3856,1.3859,1.3896,1.392,1.3962,1.3977,1.4006,1.3998,1.4009,1.4012,1.4014,1.4016,1.3944,1.4011,1.4011,1.4011,1.4011,1.4011,0,1.3693,1.3709,1.3739,1.3773,1.3798,1.3794,1.382,1.3841,1.3874,1.3897,1.3923,1.3962,1.3993,1.4012,1.4043,1.4062,1.4061,1.407,1.4068,1.4071,1.4022,1.4011,1.407,1.407,1.407,1.407,1.407,1.4069,1.3729,1.3771,1.3779,1.3831,1.3846,1.3882,1.3898,1.3918,1.3936,1.398,1.4006,1.4018,1.4039,1.4071,1.41,1.4104,1.4115,1.4124,1.4128,1.4081,1.4075,1.4069,1.406,1.4127,1.4127,1.4175,1.4175,1.4176]},{"header":{"parameterUnit":"m.s-1","parameterCategory":1,"la1":30.2991,"la2":30.254,"lo1":-89.0895,"lo2":-89.0444,"dy":0.0017,"dx":0.0017,"nx":28,"ny":28,"refTime":"2023-08-13T03:00:00:Z","depth":0,"parameterNumber":3,"parameterNumberName":"V-component_of_WINDS"},"data":[0,0,0,0,0,0,0,0,0,0,0,0,0,0,0,0,0,0,0,0,0,0,0,0,0,0,0,0,0,0,0,0,0,0,0,0,0,0,0,0,0,0,0,0,0,0,0,0,0,0,0,0,0,0,0,0,0,0,4.8205,4.8205,0,4.8186,4.8186,4.8186,4.8115,4.8113,4.8112,4.811,4.8091,4.8092,4.8093,0,0,0,0,0,0,0,0,0,0,0,0,0,4.8181,4.8182,4.8205,4.8205,4.8205,4.8186,4.8186,4.8186,4.8115,4.8113,4.8111,4.8109,4.8091,4.8092,4.8093,0,0,0,0,0,0,0,0,0,0,0,0,0,4.818,4.8182,4.8205,4.8167,4.8164,4.8186,4.8186,4.8185,4.8116,4.8113,4.8111,4.8108,4.8091,4.8092,4.8094,4.8151,0,0,4.8098,4.8099,0,0,0,0,0,0,0,0,4.818,4.8181,4.8173,4.817,4.8166,4.815,4.817,4.8174,4.8116,4.8134,4.811,4.8107,4.8113,4.8112,4.8114,4.815,4.815,4.8098,4.8099,4.81,4.81,0,0,0,0,0,0,0,4.818,4.8181,4.8198,4.8173,4.8169,4.8151,4.8148,4.8171,4.8137,4.8132,4.8127,4.8126,4.8111,4.8113,4.8113,4.8149,4.8098,4.81,4.8101,4.8101,4.823,4.8233,0,0,0,0,0,0,4.8185,4.8182,4.8198,4.8197,4.8167,4.8154,4.815,4.8158,4.8137,4.8131,4.8128,4.8122,4.8112,4.8112,4.8112,4.8177,4.81,4.8101,4.8102,4.8228,4.8231,4.8234,0,0,0,0,0,0,4.8185,4.8188,4.8199,4.8188,4.8188,4.8157,4.8165,4.8159,4.8161,4.8133,4.8127,4.8136,4.811,4.811,4.8142,4.8176,4.8102,4.8103,4.8225,4.8229,4.8232,4.8308,0,0,0,0,0,0,4.8185,4.8188,4.821,4.8189,4.8189,4.8229,4.8168,4.816,4.8164,4.8156,4.814,4.8135,4.8108,4.814,4.8143,4.8176,4.8104,4.8222,4.8227,4.8231,4.8303,4.8314,4.8324,0,0,0,0,0,4.8184,4.8232,4.8211,4.8213,4.8215,4.8231,4.8231,4.8199,4.8167,4.8188,4.817,4.8135,4.8172,4.8144,4.8147,4.8181,4.8219,4.8225,4.8231,4.8298,4.8312,4.8324,0,0,0,0,0,0,4.8258,4.8229,4.8205,4.8248,4.8242,4.8219,4.8245,4.8215,4.8219,4.8212,4.8172,4.8169,4.8206,4.8197,4.8166,4.8235,4.819,4.8196,4.8239,4.8253,4.8263,4.8264,4.8106,0,0,0,0,0,4.828,4.8295,4.8268,4.8309,4.8307,4.8277,4.8282,4.8258,4.8251,4.8248,4.8233,4.8227,4.8237,4.8245,4.8252,4.8301,4.8296,4.8326,4.8337,4.8346,4.8352,4.8376,4.8388,4.8252,4.8252,4.8252,0,0,4.8324,4.831,4.8322,4.8323,4.8316,4.8332,4.8275,4.8295,4.8307,4.8251,4.8279,4.8268,4.8259,4.8299,4.8316,4.8293,4.8388,4.8353,4.8361,4.8361,4.8383,4.8396,4.8407,4.8256,4.8255,4.8255,0,0,4.8412,4.8404,4.8435,4.8429,4.8419,4.8398,4.8406,4.8387,4.8377,4.8405,4.8363,4.8377,4.8395,4.839,4.839,4.8476,4.8443,4.848,4.8535,4.8559,4.857,4.8579,4.8608,4.8619,4.8486,4.8486,4.8486,0,4.8469,4.8491,4.8456,4.8478,4.8479,4.843,4.8461,4.8457,4.845,4.8452,4.8426,4.8447,4.8438,4.8475,4.8496,4.8499,4.8505,4.8481,4.8571,4.858,4.8588,4.8615,4.8627,4.849,4.849,4.8489,4.8489,0,4.856,4.8576,4.8603,4.8597,4.8601,4.8629,4.8597,4.8606,4.8581,4.8564,4.8592,4.8579,4.8583,4.859,4.8567,4.8624,4.8609,4.8578,4.8531,4.8606,4.8631,4.8641,4.8497,4.8495,4.8494,4.8493,0,0,4.8694,4.8667,4.8678,4.8673,4.8658,4.867,4.8695,4.8698,4.8705,4.8703,4.8721,4.8738,4.8708,4.8708,4.8684,4.8705,4.8772,4.867,4.8669,4.8688,4.8833,4.8856,4.8868,4.8751,4.8753,4.8754,4.8833,0,4.8777,4.8817,4.8785,4.883,4.8844,4.8797,4.8818,4.8811,4.8795,4.8805,4.8787,4.8799,4.876,4.8759,4.8778,4.876,4.88,4.8754,4.8767,4.8768,4.8769,4.8882,4.8906,4.8981,4.8843,4.8844,4.8846,0,4.8879,4.8879,4.8926,4.8906,4.8911,4.893,4.893,4.894,4.8931,4.8917,4.8917,4.8887,4.8909,4.8864,4.8894,4.8863,4.8867,4.8859,4.8861,4.886,4.881,4.8882,4.9004,4.9015,4.8861,4.886,4.8859,0,4.897,4.8983,4.9011,4.901,4.8988,4.9003,4.8994,4.8983,4.8986,4.8986,4.8988,4.8991,4.8992,4.8995,4.8966,4.8937,4.8999,4.8952,4.8988,4.8989,4.9002,4.9002,4.9125,4.9008,4.9007,4.9007,4.9007,0,4.9065,4.9095,4.9052,4.907,4.9102,4.9065,4.9098,4.9085,4.9075,4.9089,4.9049,4.9063,4.9025,4.9035,4.9012,4.904,4.9041,4.9031,4.9024,4.9033,4.9034,4.9034,4.9028,4.901,4.901,4.9009,4.9008,0,4.9172,4.9145,4.9173,4.915,4.9144,4.9169,4.9149,4.9164,4.9145,4.9164,4.9166,4.9137,4.9146,4.9118,4.9124,4.9109,4.9148,4.9134,4.9151,4.9146,4.9183,4.9179,4.9309,4.9324,4.9198,4.92,4.9201,0,4.9234,4.9255,4.9234,4.9241,4.9234,4.9245,4.9248,4.9213,4.9218,4.9209,4.9225,4.9231,4.9234,4.9252,4.9231,4.9235,4.922,4.9265,4.922,4.9228,4.9219,4.9217,4.9218,4.9274,4.9276,4.9277,4.9278,0,4.9346,4.9331,4.9336,4.9337,4.9341,4.9341,4.9337,4.9344,4.9307,4.9314,4.9323,4.9326,4.9331,4.9337,4.9337,4.9328,4.9297,4.9293,4.9301,4.931,4.9318,4.9312,4.9174,4.9289,4.9288,4.9287,4.9287,4.9286,4.9431,4.9447,4.9434,4.9442,4.9435,4.9432,4.9445,4.9427,4.9434,4.9435,4.9414,4.9428,4.9417,4.9412,4.9407,4.9417,4.9396,4.9408,4.9411,4.9414,4.942,4.9318,4.9417,4.9416,4.9416,4.9416,4.9415,0,4.9539,4.9528,4.9535,4.9531,4.9537,4.9506,4.9501,4.9507,4.9519,4.9512,4.9515,4.9525,4.9531,4.9511,4.9513,4.9525,4.9511,4.9527,4.9525,4.9523,4.9439,4.9431,4.9538,4.9538,4.9538,4.9538,4.9538,4.9538,4.9596,4.9622,4.9605,4.9627,4.9616,4.9628,4.9627,4.9624,4.9618,4.963,4.9635,4.9621,4.9608,4.961,4.9614,4.9608,4.961,4.9631,4.962,4.9541,4.9529,4.9518,4.951,4.9632,4.9632,4.9703,4.9704,4.9704]}]]